Regional Weather Roundup
Issued by NWS

Home | Current Version | Previous Version | Text Only | Print | Product List | Glossary Off
Versions: 1 2 3 4 5 6 7 8 9 10 11 12 13 14 15 16 17 18 19 20 21 22 23 24 25 26 27 28 29 30 31 32 33 34 35 36 37 38 39 40 41 42 43 44 45 46 47 48 49 50

000
ASUS45 KTFX 271904
RWRMT
MONTANA HOURLY WEATHER ROUNDUP
NATIONAL WEATHER SERVICE GREAT FALLS MT
104 PM MDT WED AUG 27 2014

NOTE: "FAIR" INDICATES FEW OR NO CLOUDS BELOW 12000 FEET WITH NO
SIGNIFICANT WEATHER AND/OR OBSTRUCTIONS TO VISIBILITY.

* THESE STATIONS ARE NOT UNDER NWS QUALITY CONTROL. THEY DO NOT
   REPORT WEATHER SUCH AS PRECIPITATION OR FOG.

MTZ001>007-043-272000-
WEST OF THE DIVIDE
CITY           SKY/WX    TMP DP  RH WIND       PRES   REMARKS
KALISPELL      SUNNY     77  48  36 S9        30.08F
MISSOULA       SUNNY     73  46  38 SE6       30.13F
BUTTE          SUNNY     72  41  33 NW8       30.22F
MULLAN PASS    SUNNY     66  39  37 VRB6      30.25F
* LINCOLN      N/A       72  45  38 SW7G15     N/A
* LOOKOUT PASS N/A       72  42  34 S2G13      N/A
* POLSON       N/A       81  51  35 S3         N/A
* RONAN APT    SUNNY     79  46  31 SW5        N/A
* SEELEY LAKE  N/A       74  45  36 S3         N/A
* THOMP F APT  SUNNY     69  43  39 S11G16     N/A
$$

MTZ008-052>055-272000-
SOUTHWEST MONTANA
CITY           SKY/WX    TMP DP  RH WIND       PRES   REMARKS
BOZEMAN        SUNNY     75  46  36 N6        30.15F
DILLON         SUNNY     75  43  32 S10       30.18F
W YELLOWSTONE  SUNNY     66  37  34 SW7       30.27F
* THREE FORKS  SUNNY     73  66  79 N/A        N/A
* BOULDER HILL N/A       72  36  27 SW2G20     N/A
* MONIDA PASS  N/A       66  35  32 W8G16      N/A
* RAYNOLDS PAS N/A       67  67 100 N4         N/A
* WHITEHALL    N/A       77  49  37 SW9G14     N/A
* WISE RIVER   N/A       70  47  44 NW6        N/A
$$

MTZ009>010-012-014-046-048-049-054-272000-
EAST SLOPES AND CENTRAL MONTANA
CITY           SKY/WX    TMP DP  RH WIND       PRES   REMARKS
CUT BANK       SUNNY     82  45  27 W8G21     30.02F
GREAT FALLS    SUNNY     79  45  30 W9        30.05F
HELENA         SUNNY     81  45  28 W12G20    30.09F
MALMSTROM AFB  SUNNY     77  43  30 W12G18    30.06F
* CONRAD       SUNNY     82  48  31 W5         N/A
* EAST GLACIER N/A       73  47  40 W16G26     N/A
* MONARCH      N/A       70  36  29 W13G20     N/A
* PENDROY      N/A       79  43  28 N4G13      N/A
* ROGERS PASS  N/A       67  43  42 SE10G22    N/A
* SAINT MARY   N/A       73  46  38 SW9G23     N/A
* SWEET GRASS  N/A       79  47  32 NW15G21    N/A
$$

MTZ011-013-016-021-035-040-045-047-050-051-272000-
NORTH CENTRAL MONTANA
CITY           SKY/WX    TMP DP  RH WIND       PRES   REMARKS
HAVRE          SUNNY     81  48  32 SW18G24   29.96F
LEWISTOWN      SUNNY     79  45  30 NW10      30.07F
* CHESTER      N/A       79  42  27 W7G12      N/A
* DENTON       N/A       79  40  25 W19G26     N/A
* GEYSER       N/A       77  40  27 W16G22     N/A
* JUDITH GAP   N/A       76  40  27 NW7G14     N/A
* LOMA         N/A       80  44  28 SW12       N/A
$$

MTZ017>020-022>027-061-062-272000-
NORTHEAST MONTANA
CITY           SKY/WX    TMP DP  RH WIND       PRES   REMARKS
GLASGOW        SUNNY     81  54  39 S9        29.97F
GLENDIVE       SUNNY     79  57  47 S9        30.05F
JORDAN         SUNNY     82  54  38 S10       29.99F
SIDNEY         SUNNY     79  54  42 S9        30.04F
WOLF POINT     SUNNY     84  54  36 SW9       29.97F
* BEAVER HILL  N/A       77  53  43 SE14G19    N/A
* CIRCLE       N/A       83  55  38 S15        N/A
* LINDSAY DVD  N/A       77  54  45 SE11G18    N/A
* NAVAJO       N/A       79  51  38 S13G20     N/A
$$

MTZ028>042-056>058-272000-
SOUTHCENTRAL AND SOUTHEAST MONTANA
CITY           SKY/WX    TMP DP  RH WIND       PRES   REMARKS
BAKER          SUNNY     79  52  39 SE8       30.09F
BILLINGS       SUNNY     79  52  39 W6        30.07F
LIVINGSTON     SUNNY     81  39  22 SW21      30.11F
MILES CITY     SUNNY     82  46  28 SE9       30.03F
* LAUREL APT   SUNNY     79  46  31 N/A        N/A
* ROUNDUP APT  SUNNY     79  48  34 S8         N/A
* ALZADA       N/A       75  56  52 E7G13      N/A
* HYSHAM       N/A       81  45  28 W6         N/A
* LAME DEER    N/A       73  53  50 SE6G12     N/A
* REED POINT   N/A       82  44  26 NW8        N/A
* ROSCOE HILL  N/A       75  31  20 NW6G11     N/A
$$

REGIONAL REPORTS...DAKOTAS
CITY           SKY/WX    TMP DP  RH WIND       PRES   REMARKS
WILLISTON      SUNNY     79  54  42 S12       30.03F
DICKINSON      SUNNY     73  55  53 S8        30.09F
BEACH          N/A       75  54  48 S9        30.08F
CROSBY         SUNNY     77  55  47 S10       30.03F
TIOGA          SUNNY     75  54  48 S13G18    30.09F
WATFORD CITY   SUNNY     77  57  50 SE10G17   30.04F
BISMARCK       SUNNY     73  59  62 S7        30.12F
GRAND FORKS    PTCLDY    72  52  49 S6        30.15F
FARGO          PTSUNNY   72  57  59 S6        30.16F
BUFFALO SD     PTCLDY    77  57  50 SE10      30.05F
RAPID CITY     CLOUDY    73  61  66 E6        30.11F
$$

REGIONAL REPORTS...WYOMING/IDAHO/WASHINGTON
CITY           SKY/WX    TMP DP  RH WIND       PRES   REMARKS
GILLETTE       CLOUDY    77  55  47 SE6       30.13F
SHERIDAN       CLOUDY    81  52  37 VRB3      30.10F
CODY           PTSUNNY   73  43  34 S3        30.16F
YELLOWSTONE LA PTCLDY    61  43  52 VRB5      30.35F
SALMON         SUNNY     70  46  42 NW3       30.16F
MULLAN PASS    SUNNY     66  39  37 VRB6      30.25S
SAND POINT     SUNNY     77  55  47 SE5       30.06F
SPOKANE        SUNNY     82  39  22 VRB3      30.05F

$$



USA.gov is the U.S. government's official web portal to all federal, state and local government web resources and services.